Time,TemperatureF,DewpointF,PressureIn,WindDirection,WindDirectionDegrees,WindSpeedMPH,WindSpeedGustMPH,Humidity,HourlyPrecipIn,Conditions,Clouds,dailyrainin,SoftwareType,DateUTC
2013-03-08 00:01:00,35.0,28.0,-100.00,NNW,334,4.0,4.0,78,-99.99,,,-99.99,,2013-03-08 07:01:00,
2013-03-08 00:11:00,34.0,27.0,-100.00,WSW,243,4.0,4.0,77,-99.99,,,-99.99,,2013-03-08 07:11:00,
2013-03-08 00:21:00,34.0,28.0,-100.00,SW,223,5.0,6.0,77,-99.99,,,-99.99,,2013-03-08 07:21:00,
2013-03-08 00:31:00,33.0,27.0,-100.00,WNW,288,1.0,4.0,78,-99.99,,,-99.99,,2013-03-08 07:31:00,
2013-03-08 00:41:00,33.0,27.0,-100.00,WNW,288,1.0,4.0,78,-99.99,,,-99.99,,2013-03-08 07:41:00,
2013-03-08 00:51:00,33.0,27.0,-100.00,SSW,213,1.0,2.0,79,-99.99,,,-99.99,,2013-03-08 07:51:00,
2013-03-08 01:01:00,33.0,27.0,-100.00,SSW,213,1.0,2.0,79,-99.99,,,-99.99,,2013-03-08 08:01:00,
2013-03-08 01:11:00,33.0,27.0,-100.00,South,181,2.0,3.0,80,-99.99,,,-99.99,,2013-03-08 08:11:00,
2013-03-08 01:21:00,33.0,27.0,-100.00,South,186,3.0,4.0,80,-99.99,,,-99.99,,2013-03-08 08:21:00,
2013-03-08 01:31:00,33.0,27.0,-100.00,South,186,3.0,4.0,80,-99.99,,,-99.99,,2013-03-08 08:31:00,
2013-03-08 01:41:00,33.0,27.0,-100.00,SSW,201,2.0,2.0,81,-99.99,,,-99.99,,2013-03-08 08:41:00,
2013-03-08 01:52:00,32.0,27.0,-100.00,SSE,148,1.0,2.0,81,-99.99,,,-99.99,,2013-03-08 08:52:00,
2013-03-08 02:02:00,32.0,27.0,-100.00,SSE,148,1.0,2.0,81,-99.99,,,-99.99,,2013-03-08 09:02:00,
2013-03-08 02:11:00,32.0,27.0,-100.00,WSW,244,2.0,2.0,81,-99.99,,,-99.99,,2013-03-08 09:11:00,
2013-03-08 02:21:00,30.0,26.0,-100.00,North,0,0.0,2.0,82,-99.99,,,-99.99,,2013-03-08 09:21:00,
2013-03-08 02:32:00,30.0,26.0,-100.00,North,0,0.0,2.0,82,-99.99,,,-99.99,,2013-03-08 09:32:00,
2013-03-08 02:42:00,31.0,26.0,-100.00,WNW,292,1.0,2.0,83,-99.99,,,-99.99,,2013-03-08 09:42:00,
2013-03-08 02:51:00,31.0,27.0,-100.00,NW,326,1.0,2.0,84,-99.99,,,-99.99,,2013-03-08 09:51:00,
2013-03-08 03:01:00,31.0,27.0,-100.00,NW,326,1.0,2.0,84,-99.99,,,-99.99,,2013-03-08 10:01:00,
2013-03-08 03:11:00,31.0,27.0,-100.00,ENE,63,2.0,3.0,85,-99.99,,,-99.99,,2013-03-08 10:11:00,
2013-03-08 03:21:00,31.0,27.0,-100.00,ENE,73,4.0,4.0,85,-99.99,,,-99.99,,2013-03-08 10:21:00,
2013-03-08 03:31:00,31.0,27.0,-100.00,ENE,73,4.0,4.0,85,-99.99,,,-99.99,,2013-03-08 10:31:00,
2013-03-08 03:41:00,30.0,27.0,-100.00,North,350,1.0,2.0,86,-99.99,,,-99.99,,2013-03-08 10:41:00,
2013-03-08 03:51:00,30.0,26.0,-100.00,North,0,0.0,1.0,86,-99.99,,,-99.99,,2013-03-08 10:51:00,
2013-03-08 04:01:00,30.0,26.0,-100.00,North,0,0.0,1.0,86,-99.99,,,-99.99,,2013-03-08 11:01:00,
2013-03-08 04:11:00,31.0,27.0,-100.00,SSW,200,2.0,2.0,86,-99.99,,,-99.99,,2013-03-08 11:11:00,
2013-03-08 04:21:00,29.0,26.0,-100.00,East,88,0.0,4.0,86,-99.99,,,-99.99,,2013-03-08 11:21:00,
2013-03-08 04:32:00,29.0,26.0,-100.00,East,88,0.0,4.0,86,-99.99,,,-99.99,,2013-03-08 11:32:00,
2013-03-08 04:41:00,30.0,26.0,-100.00,West,275,3.0,3.0,86,-99.99,,,-99.99,,2013-03-08 11:41:00,
2013-03-08 04:52:00,29.0,26.0,-100.00,West,266,1.0,5.0,87,-99.99,,,-99.99,,2013-03-08 11:52:00,
2013-03-08 05:01:00,29.0,26.0,-100.00,West,266,1.0,5.0,87,-99.99,,,-99.99,,2013-03-08 12:01:00,
2013-03-08 05:11:00,30.0,27.0,-100.00,NE,49,3.0,4.0,87,-99.99,,,-99.99,,2013-03-08 12:11:00,
2013-03-08 05:22:00,30.0,27.0,-100.00,ESE,110,2.0,2.0,87,-99.99,,,-99.99,,2013-03-08 12:22:00,
2013-03-08 05:32:00,30.0,27.0,-100.00,ESE,110,2.0,2.0,87,-99.99,,,-99.99,,2013-03-08 12:32:00,
2013-03-08 05:42:00,30.0,27.0,-100.00,West,274,2.0,2.0,86,-99.99,,,-99.99,,2013-03-08 12:42:00,
2013-03-08 05:52:00,30.0,26.0,-100.00,West,271,2.0,3.0,87,-99.99,,,-99.99,,2013-03-08 12:52:00,
2013-03-08 06:01:00,30.0,26.0,-100.00,West,271,2.0,3.0,87,-99.99,,,-99.99,,2013-03-08 13:01:00,
2013-03-08 06:11:00,30.0,27.0,-100.00,SE,141,1.0,2.0,87,-99.99,,,-99.99,,2013-03-08 13:11:00,
2013-03-08 06:21:00,31.0,27.0,-100.00,SSE,159,2.0,3.0,87,-99.99,,,-99.99,,2013-03-08 13:21:00,
2013-03-08 06:32:00,31.0,27.0,-100.00,SSE,159,2.0,3.0,87,-99.99,,,-99.99,,2013-03-08 13:32:00,
2013-03-08 06:42:00,30.0,27.0,-100.00,SSW,204,1.0,3.0,87,-99.99,,,-99.99,,2013-03-08 13:42:00,
2013-03-08 06:52:00,31.0,28.0,-100.00,SE,145,0.0,2.0,87,-99.99,,,-99.99,,2013-03-08 13:52:00,
2013-03-08 07:02:00,31.0,28.0,-100.00,SE,145,0.0,2.0,87,-99.99,,,-99.99,,2013-03-08 14:02:00,
2013-03-08 07:11:00,31.0,28.0,-100.00,ESE,119,5.0,6.0,88,-99.99,,,-99.99,,2013-03-08 14:11:00,
2013-03-08 07:21:00,30.0,28.0,-100.00,SE,132,7.0,7.0,89,-99.99,,,-99.99,,2013-03-08 14:21:00,
2013-03-08 07:32:00,31.0,28.0,-100.00,ESE,112,6.0,8.0,89,-99.99,,,-99.99,,2013-03-08 14:32:00,
2013-03-08 07:42:00,31.0,28.0,-100.00,ESE,112,6.0,8.0,89,-99.99,,,-99.99,,2013-03-08 14:42:00,
2013-03-08 07:52:00,30.0,27.0,-100.00,ENE,64,4.0,5.0,89,-99.99,,,-99.99,,2013-03-08 14:52:00,
2013-03-08 08:02:00,30.0,27.0,-100.00,ENE,64,4.0,5.0,89,-99.99,,,-99.99,,2013-03-08 15:02:00,
2013-03-08 08:11:00,31.0,28.0,-100.00,NE,39,5.0,6.0,88,-99.99,,,-99.99,,2013-03-08 15:11:00,
2013-03-08 08:21:00,31.0,28.0,-100.00,NE,39,5.0,6.0,88,-99.99,,,-99.99,,2013-03-08 15:21:00,
2013-03-08 08:32:00,31.0,28.0,-100.00,NE,39,5.0,6.0,88,-99.99,,,-99.99,,2013-03-08 15:32:00,
2013-03-08 08:42:00,32.0,29.0,-100.00,NNE,23,3.0,7.0,88,-99.99,,,-99.99,,2013-03-08 15:42:00,
2013-03-08 08:52:00,32.0,29.0,-100.00,NNE,23,3.0,7.0,88,-99.99,,,-99.99,,2013-03-08 15:52:00,
2013-03-08 09:01:00,32.0,29.0,-100.00,North,5,4.0,5.0,88,-99.99,,,-99.99,,2013-03-08 16:01:00,
2013-03-08 09:11:00,32.0,29.0,-100.00,North,5,4.0,5.0,88,-99.99,,,-99.99,,2013-03-08 16:11:00,
2013-03-08 09:21:00,33.0,29.0,-100.00,ENE,67,4.0,5.0,87,-99.99,,,-99.99,,2013-03-08 16:21:00,
2013-03-08 09:31:00,33.0,29.0,-100.00,ENE,67,4.0,5.0,87,-99.99,,,-99.99,,2013-03-08 16:31:00,
2013-03-08 09:41:00,35.0,31.0,-100.00,North,8,0.0,4.0,84,-99.99,,,-99.99,,2013-03-08 16:41:00,
2013-03-08 09:51:00,35.0,31.0,-100.00,North,8,0.0,4.0,84,-99.99,,,-99.99,,2013-03-08 16:51:00,
2013-03-08 10:02:00,34.0,29.0,-100.00,WNW,303,4.0,6.0,81,-99.99,,,-99.99,,2013-03-08 17:02:00,
2013-03-08 10:11:00,34.0,29.0,-100.00,WNW,303,4.0,6.0,81,-99.99,,,-99.99,,2013-03-08 17:11:00,
2013-03-08 10:21:00,34.0,29.0,-100.00,NNW,328,4.0,5.0,81,-99.99,,,-99.99,,2013-03-08 17:21:00,
2013-03-08 10:31:00,34.0,29.0,-100.00,NNW,328,4.0,5.0,81,-99.99,,,-99.99,,2013-03-08 17:31:00,
2013-03-08 10:41:00,37.0,30.0,-100.00,NE,37,2.0,4.0,77,-99.99,,,-99.99,,2013-03-08 17:41:00,
2013-03-08 10:52:00,37.0,31.0,-100.00,NE,51,3.0,5.0,77,-99.99,,,-99.99,,2013-03-08 17:52:00,
2013-03-08 11:01:00,38.0,30.0,-100.00,East,80,5.0,7.0,72,-99.99,,,-99.99,,2013-03-08 18:01:00,
2013-03-08 11:11:00,38.0,30.0,-100.00,East,80,5.0,7.0,72,-99.99,,,-99.99,,2013-03-08 18:11:00,
2013-03-08 11:21:00,39.0,29.0,-100.00,ESE,106,4.0,9.0,68,-99.99,,,-99.99,,2013-03-08 18:21:00,
2013-03-08 11:31:00,39.0,29.0,-100.00,ESE,106,4.0,9.0,68,-99.99,,,-99.99,,2013-03-08 18:31:00,
2013-03-08 11:42:00,39.0,28.0,-100.00,SE,134,7.0,11.0,63,-99.99,,,-99.99,,2013-03-08 18:42:00,
2013-03-08 11:51:00,39.0,28.0,-100.00,ESE,119,6.0,12.0,61,-99.99,,,-99.99,,2013-03-08 18:51:00,
2013-03-08 12:01:00,39.0,28.0,-100.00,ESE,119,6.0,12.0,61,-99.99,,,-99.99,,2013-03-08 19:01:00,
2013-03-08 12:11:00,40.0,27.0,-100.00,East,93,11.0,11.0,58,-99.99,,,-99.99,,2013-03-08 19:11:00,
2013-03-08 12:21:00,40.0,27.0,-100.00,East,93,11.0,11.0,58,-99.99,,,-99.99,,2013-03-08 19:21:00,
2013-03-08 12:32:00,40.0,27.0,-100.00,East,93,11.0,11.0,58,-99.99,,,-99.99,,2013-03-08 19:32:00,
2013-03-08 12:41:00,41.0,26.0,-100.00,ESE,103,8.0,12.0,56,-99.99,,,-99.99,,2013-03-08 19:41:00,
2013-03-08 12:51:00,41.0,26.0,-100.00,ESE,103,8.0,12.0,56,-99.99,,,-99.99,,2013-03-08 19:51:00,
2013-03-08 13:01:00,41.0,25.0,-100.00,East,97,9.0,10.0,52,-99.99,,,-99.99,,2013-03-08 20:01:00,
2013-03-08 13:11:00,41.0,25.0,-100.00,East,97,9.0,10.0,52,-99.99,,,-99.99,,2013-03-08 20:11:00,
2013-03-08 13:21:00,41.0,26.0,-100.00,East,92,9.0,11.0,52,-99.99,,,-99.99,,2013-03-08 20:21:00,
2013-03-08 13:31:00,41.0,26.0,-100.00,East,92,9.0,11.0,52,-99.99,,,-99.99,,2013-03-08 20:31:00,
2013-03-08 13:41:00,41.0,27.0,-100.00,East,85,9.0,12.0,56,-99.99,,,-99.99,,2013-03-08 20:41:00,
2013-03-08 13:52:00,41.0,27.0,-100.00,East,85,9.0,12.0,56,-99.99,,,-99.99,,2013-03-08 20:52:00,
2013-03-08 14:01:00,41.0,27.0,-100.00,East,85,9.0,12.0,56,-99.99,,,-99.99,,2013-03-08 21:01:00,
2013-03-08 14:11:00,41.0,28.0,-100.00,ENE,65,12.0,14.0,60,-99.99,,,-99.99,,2013-03-08 21:11:00,
2013-03-08 14:21:00,41.0,29.0,-100.00,ENE,77,11.0,13.0,60,-99.99,,,-99.99,,2013-03-08 21:21:00,
2013-03-08 14:32:00,42.0,28.0,-100.00,ESE,111,7.0,11.0,56,-99.99,,,-99.99,,2013-03-08 21:32:00,
2013-03-08 14:41:00,42.0,28.0,-100.00,ESE,111,7.0,11.0,56,-99.99,,,-99.99,,2013-03-08 21:41:00,
2013-03-08 14:51:00,42.0,28.0,-100.00,ESE,103,7.0,10.0,56,-99.99,,,-99.99,,2013-03-08 21:51:00,
2013-03-08 15:01:00,42.0,29.0,-100.00,ENE,74,9.0,12.0,59,-99.99,,,-99.99,,2013-03-08 22:01:00,
2013-03-08 15:11:00,42.0,27.0,-100.00,East,87,7.0,13.0,56,-99.99,,,-99.99,,2013-03-08 22:11:00,
2013-03-08 15:21:00,42.0,27.0,-100.00,East,87,7.0,13.0,56,-99.99,,,-99.99,,2013-03-08 22:21:00,
2013-03-08 15:32:00,42.0,27.0,-100.00,East,87,7.0,13.0,56,-99.99,,,-99.99,,2013-03-08 22:32:00,
2013-03-08 15:41:00,42.0,28.0,-100.00,NE,55,6.0,8.0,56,-99.99,,,-99.99,,2013-03-08 22:41:00,
2013-03-08 15:52:00,42.0,27.0,-100.00,ENE,57,8.0,10.0,54,-99.99,,,-99.99,,2013-03-08 22:52:00,
2013-03-08 16:01:00,41.0,29.0,-100.00,NNE,25,11.0,11.0,61,-99.99,,,-99.99,,2013-03-08 23:01:00,
2013-03-08 16:11:00,40.0,29.0,-100.00,NNE,32,12.0,14.0,62,-99.99,,,-99.99,,2013-03-08 23:11:00,
2013-03-08 16:21:00,40.0,29.0,-100.00,NNE,32,12.0,14.0,62,-99.99,,,-99.99,,2013-03-08 23:21:00,
2013-03-08 16:32:00,40.0,29.0,-100.00,NNE,32,12.0,14.0,62,-99.99,,,-99.99,,2013-03-08 23:32:00,
2013-03-08 16:41:00,40.0,28.0,-100.00,ENE,62,12.0,14.0,60,-99.99,,,-99.99,,2013-03-08 23:41:00,
2013-03-08 16:52:00,40.0,28.0,-100.00,ENE,62,12.0,14.0,60,-99.99,,,-99.99,,2013-03-08 23:52:00,
2013-03-08 17:01:00,39.0,28.0,-100.00,East,81,7.0,12.0,62,-99.99,,,-99.99,,2013-03-09 00:01:00,
2013-03-08 17:11:00,37.0,30.0,-100.00,SE,146,8.0,11.0,73,-99.99,,,-99.99,,2013-03-09 00:11:00,
2013-03-08 17:21:00,37.0,30.0,-100.00,SE,146,8.0,11.0,73,-99.99,,,-99.99,,2013-03-09 00:21:00,
2013-03-08 17:31:00,37.0,30.0,-100.00,SE,146,8.0,11.0,73,-99.99,,,-99.99,,2013-03-09 00:31:00,
2013-03-08 17:41:00,35.0,31.0,-100.00,SSE,164,4.0,7.0,83,-99.99,,,-99.99,,2013-03-09 00:41:00,
2013-03-08 17:50:00,35.0,30.0,-100.00,NW,319,4.0,5.0,85,-99.99,,,-99.99,,2013-03-09 00:50:00,
2013-03-08 17:51:00,35.0,31.0,-100.00,SSE,164,4.0,7.0,83,-99.99,,,-99.99,,2013-03-09 00:51:00,
2013-03-08 18:01:00,35.0,31.0,-100.00,ENE,68,0.0,3.0,83,-99.99,,,-99.99,,2013-03-09 01:01:00,
2013-03-08 18:12:00,35.0,30.0,-100.00,NW,319,4.0,5.0,85,-99.99,,,-99.99,,2013-03-09 01:12:00,
2013-03-08 18:21:00,35.0,30.0,-100.00,NW,319,4.0,5.0,85,-99.99,,,-99.99,,2013-03-09 01:21:00,
2013-03-08 18:31:00,35.0,30.0,-100.00,NW,319,4.0,5.0,85,-99.99,,,-99.99,,2013-03-09 01:31:00,
2013-03-08 18:41:00,35.0,30.0,-100.00,NW,319,4.0,5.0,85,-99.99,,,-99.99,,2013-03-09 01:41:00,
2013-03-08 20:11:00,33.0,30.0,-100.00,SW,234,1.0,5.0,89,-99.99,,,-99.99,,2013-03-09 03:11:00,
2013-03-08 20:21:00,33.0,30.0,-100.00,SW,234,1.0,5.0,89,-99.99,,,-99.99,,2013-03-09 03:21:00,
2013-03-08 20:31:00,33.0,30.0,-100.00,SW,234,1.0,5.0,89,-99.99,,,-99.99,,2013-03-09 03:31:00,
2013-03-08 20:41:00,32.0,30.0,-100.00,WSW,239,5.0,5.0,89,-99.99,,,-99.99,,2013-03-09 03:41:00,
2013-03-08 20:52:00,32.0,30.0,-100.00,WSW,239,5.0,5.0,89,-99.99,,,-99.99,,2013-03-09 03:52:00,
2013-03-08 21:01:00,32.0,30.0,-100.00,WSW,239,5.0,5.0,89,-99.99,,,-99.99,,2013-03-09 04:01:00,
2013-03-08 21:11:00,33.0,30.0,-100.00,SW,214,8.0,9.0,90,-99.99,,,-99.99,,2013-03-09 04:11:00,
2013-03-08 21:21:00,33.0,31.0,-100.00,West,259,2.0,9.0,90,-99.99,,,-99.99,,2013-03-09 04:21:00,
2013-03-08 21:31:00,33.0,31.0,-100.00,South,169,2.0,6.0,90,-99.99,,,-99.99,,2013-03-09 04:31:00,
2013-03-08 21:41:00,33.0,31.0,-100.00,South,169,2.0,6.0,90,-99.99,,,-99.99,,2013-03-09 04:41:00,
2013-03-08 21:51:00,33.0,31.0,-100.00,North,0,0.0,4.0,90,-99.99,,,-99.99,,2013-03-09 04:51:00,
2013-03-08 22:02:00,33.0,31.0,-100.00,North,0,0.0,4.0,90,-99.99,,,-99.99,,2013-03-09 05:02:00,
2013-03-08 22:11:00,33.0,30.0,-100.00,NNE,24,9.0,12.0,88,-99.99,,,-99.99,,2013-03-09 05:11:00,
2013-03-08 22:21:00,34.0,30.0,-100.00,NNE,21,6.0,13.0,86,-99.99,,,-99.99,,2013-03-09 05:21:00,
2013-03-08 22:31:00,34.0,30.0,-100.00,NNW,345,2.0,9.0,85,-99.99,,,-99.99,,2013-03-09 05:31:00,
2013-03-08 22:42:00,34.0,30.0,-100.00,NNW,345,2.0,9.0,85,-99.99,,,-99.99,,2013-03-09 05:42:00,
2013-03-08 22:52:00,34.0,30.0,-100.00,NNE,27,3.0,5.0,85,-99.99,,,-99.99,,2013-03-09 05:52:00,
2013-03-08 23:01:00,34.0,30.0,-100.00,NNE,27,3.0,5.0,85,-99.99,,,-99.99,,2013-03-09 06:01:00,
2013-03-08 23:11:00,33.0,30.0,-100.00,NNW,345,2.0,4.0,86,-99.99,,,-99.99,,2013-03-09 06:11:00,
2013-03-08 23:22:00,33.0,29.0,-100.00,NNE,23,3.0,5.0,87,-99.99,,,-99.99,,2013-03-09 06:22:00,
2013-03-08 23:31:00,33.0,30.0,-100.00,WSW,252,1.0,2.0,88,-99.99,,,-99.99,,2013-03-09 06:31:00,
2013-03-08 23:42:00,33.0,30.0,-100.00,WSW,252,1.0,2.0,88,-99.99,,,-99.99,,2013-03-09 06:42:00,
2013-03-08 23:51:00,33.0,30.0,-100.00,SW,228,5.0,5.0,89,-99.99,,,-99.99,,2013-03-09 06:51:00,